Regional Weather Roundup
Issued by NWS Wilmington, NC

Home | Current Version | Previous Version | Text Only | Print | Product List | Glossary On
Versions: 1 2 3 4 5 6 7 8 9 10 11 12 13 14 15 16 17 18 19 20 21 22 23 24 25 26 27 28 29 30 31 32 33 34 35 36 37 38 39 40 41 42
000
ASUS42 KILM 221310
RWRILM
RWRILM
REGIONAL HOURLY WEATHER ROUNDUP
NATIONAL WEATHER SERVICE WILMINGTON NC
900 AM EDT WED OCT 22 2014

NOTE: "FAIR" INDICATES FEW OR NO CLOUDS BELOW 12,000 FEET WITH NO
SIGNIFICANT WEATHER AND/OR OBSTRUCTIONS TO VISIBILITY.

...............WFO WILMINGTON COUNTY WARNING AREA...............

......COASTAL NC AND SC COUNTIES......

CITY           SKY/WX    TMP DP  RH WIND       PRES   REMARKS
WILMINGTON     SUNNY     54  44  69 NW10      29.98R
SOUTHPORT      SUNNY     52  42  68 N15G21    29.98R
N MYRTLE BEACH SUNNY     54  42  64 NW8       30.00R
MYRTLE BEACH   SUNNY     55  39  54 N14G20    30.01R

......INLAND NC AND SC COUNTIES.......

CITY           SKY/WX    TMP DP  RH WIND       PRES   REMARKS
LUMBERTON      SUNNY     53  41  63 W7        30.00R
ELIZABETHTOWN  SUNNY     52  42  67 NW10      29.99R
WHITEVILLE     SUNNY     53  42  66 NW3       30.00R
FLORENCE       SUNNY     53  40  61 NW8       30.03R
DARLINGTON     SUNNY     54  39  58 N9        30.04R

....................REST OF NORTH CAROLINA......................

.........EASTERN NC.........

CITY           SKY/WX    TMP DP  RH WIND       PRES   REMARKS
CAPE HATTERAS  MOSUNNY   58  53  84 NW13G22   29.86R
JACKSONVILLE   SUNNY     52  43  71 W5        29.96R
MOREHEAD CITY  SUNNY     56  49  77 NW15      29.92R
KENANSVILLE    SUNNY     52  43  72 NW9       29.97R
NEW BERN       SUNNY     56  46  69 W7        29.94R
ELIZABETH CITY CLOUDY    56  50  80 NW14G21   29.86R

.........CENTRAL NC.........

CITY           SKY/WX    TMP DP  RH WIND       PRES   REMARKS
RALEIGH DURHAM MOSUNNY   53  38  56 N13G18    29.99R
ROCKY MOUNT    SUNNY     53  44  71 NW10G18   29.95R
ROANOKE RAPIDS NOT AVBL
FAYETTEVILLE   SUNNY     55  40  56 NW16      29.99R
HOFFMAN        SUNNY     54  42  64 NW6       30.03R

.........WESTERN NC.........

CITY           SKY/WX    TMP DP  RH WIND       PRES   REMARKS
CHARLOTTE      MOSUNNY   50  37  61 NW8       30.07R
GREENSBORO     MOSUNNY   50  40  68 NW7       30.03R
HICKORY        NOT AVBL
BOONE          NOT AVBL
ASHEVILLE      NOT AVBL

.....................REST OF SOUTH CAROLINA.....................

.........EASTERN SC.........

CITY           SKY/WX    TMP DP  RH WIND       PRES   REMARKS
CHARLESTON     SUNNY     59  43  55 N10       30.04R
BEAUFORT MCAS  SUNNY     58  44  60 N13       30.05R
HILTON HEAD    NOT AVBL

.........CENTRAL SC.........

CITY           SKY/WX    TMP DP  RH WIND       PRES   REMARKS
COLUMBIA       SUNNY     54  39  57 N6        30.06R
ORANGEBURG     SUNNY     52  43  71 VRB3      30.06R
SUMTER SHAW    SUNNY     52  42  67 NW6       30.04R

.........WESTERN SC.........

CITY           SKY/WX    TMP DP  RH WIND       PRES   REMARKS
GREENVILLE     NOT AVBL
ROCK HILL      SUNNY     50  40  68 N9        30.07R
ANDERSON       SUNNY     47  44  90 CALM      30.09R
CLEMSON        NOT AVBL
GREENWOOD      SUNNY     49  43  80 CALM      30.10R


...................COASTAL AND OFFSHORE REPORTS..................

................LOCAL PIERS AND NC RESERVE................


STATION/POSITION TIME  SKY/WX   TEMP    WIND        PRES    VSBY
                                AIR SEA DIR/SP/G
                 (UTC)          (F)     (DEG/KT/KT) (MB)    (MI)
JOHNY MRCER PIER 1300            54 74  330/ 11/ 16 1014.2R
NC RESRV MASNBRO 1200            52     200/  2     1013.0S
OCEAN CREST PIER 1300            53 71  310/ 12/ 17 1013.6R
SPRINGMAID  PIER 1300            55 71  330/ 10/ 15 1016.0R


................COASTAL AND OFFSHORE BUOYS................


STATION/POSITION TIME  SKY/WX   TEMP    WIND        PRES    VSBY
                                AIR SEA DIR/SP/G
                 (UTC)          (F)     (DEG/KT/KT) (MB)    (MI)
DIMNDSHOAL 41025 1300            62     300/ 21/ 25 1010.6R
WVE H/P(F/S)=  4/ 5 WND WVE H/P(F/S)=  3/ 5 SWL H/P/D(F/S/D)=  2/ 90/ 9

CAPE LOOKOUT     1200            57     330/ 16/ 19 1012.3R
ONSLOW BAY 41036 1200            60 76  340/ 19/ 21 1012.2R
5 WRITEBCH 41038 1300            55 73  340/ 17/ 21   N/A
MASONBORO  41110 1300               73                N/A
WVE H/P(F/S)=  2/ 3 WND WVE H/P(F/S)=  2/ 3

WILM HARBR 41108 1300               73                N/A
WVE H/P(F/S)=  3/ 4 WND WVE H/P(F/S)=  3/ 4

27WRITEBCH 41037 1200            57 75  350/ 19/ 23 1013.4R
FRYING PAN 41013 1300            59 75  340/ 17/ 21 1014.8R
WVE H/P(F/S)=  5/ 5 WND WVE H/P(F/S)=  5/ 5

SUNST NRSH 41024 1200            55     340/ 16/ 17 1014.3R
CAPRS NRSH 41029 1200            58     360/ 14/ 17   N/A
EDISTO     41004 1300            63 79  360/ 19/ 23 1014.9R
WVE H/P(F/S)=  5/ 6 WND WVE H/P(F/S)=  5/ 6 SWL H/P/D(F/S/D)=  2/10



..........OFFSHORE BUOYS BEYOND 100 NM OFFSHORE...........
.....IN A TRIANGLE---HAT TO BERMUDA TO BAHAMAS TO HAT.....


STATION/POSITION TIME  SKY/WX   TEMP    WIND        PRES    VSBY
                                AIR SEA DIR/SP/G
                 (UTC)          (F)     (DEG/KT/KT) (MB)    (MI)
150E HAT   41001 NOT AVBL
W BERMUDA  41048 1237            79 79  190/ 12/ 14 1012.4R
WVE H/P(F/S)=  4/ 5 WND WVE H/P(F/S)=  3/ 5 SWL H/P/D(F/S/D)=  3/170/ 6

ATLANTIC S 41049 1209            81 81  120/  8/ 10 1016.9R
WVE H/P(F/S)=  5/ 8 WND WVE H/P(F/S)=  2/ 4 SWL H/P/D(F/S/D)=  5/ 10/ 8

E BAHAMAS  41046 1248            83 83  150/  8/ 10 1015.7R
WVE H/P(F/S)=  4/ 9 WND WVE H/P(F/S)=  2/ 4 SWL H/P/D(F/S/D)=  3/ 50/ 9

NE BAHAMAS 41047 1250            80 82  200/  8/ 10 1015.0R
WVE H/P(F/S)=  3/10 SWL H/P/D(F/S/D)=  3/ 80/10

120E CANVRL41010 1300            77 80  360/  6/  8 1014.3R
WVE H/P(F/S)=  3/ 8 WND WVE H/P(F/S)=  2/ 4 SWL H/P/D(F/S/D)=  2/ 70/ 8


END



USA.gov is the U.S. government's official web portal to all federal, state and local government web resources and services.